Weather History for KEVV - October, 2014

Change the Weather History Date:

Monday, October 27, 2014

  Actual Average Record
Temperature  
Mean Temperature 70 °F 54 °F  
Max Temperature 83 °F 66 °F 85 °F (1963)
Min Temperature 56 °F 43 °F 27 °F (1961)
Degree Days  
Heating Degree Days 0 11  
Month to date heating degree days 166 210  
Since 1 July heating degree days 202 257  
Cooling Degree Days 5 0  
Month to date cooling degree days 34 28  
Year to date cooling degree days 1477 1394  
Growing Degree Days 20 (Base 50)    
Moisture  
Dew Point 55 °F    
Average Humidity 66    
Maximum Humidity 97    
Minimum Humidity 34    
Precipitation  
Precipitation 0.00 in 0.11 in 1.76 in (1947)
Month to date precipitation 3.66 2.80  
Year to date precipitation 40.39 36.77  
Snow  
Snow 0.00 in 0.10 in T in (2008)
Month to date snowfall 0.0 0.2  
Since 1 July snowfall 0.0 0.2  
Since 1 September snowfall 0.0 0.2  
Snow Depth 0.00 in    
Sea Level Pressure  
Sea Level Pressure 29.87 in    
Wind  
Wind Speed 11 mph (SSW)    
Max Wind Speed 29 mph    
Max Gust Speed 36 mph    
Visibility 9 miles    
Events      
T = Trace of Precipitation, MM = Missing Value Source: NWS Daily Summary

Daily Weather History Graph

Daily Weather History Graph

Search for Another Location

Airport or City:

Trip Planner

Search our weather history database for the weather conditions in past years. The results will help you decide how hot, cold, wet, or windy it might be!

Date:

Astronomy

Oct. 27, 2014 Rise Set
Actual Time 7:10 AM CDT 5:56 PM CDT
Civil Twilight 6:43 AM CDT 6:23 PM CDT
Nautical Twilight 6:12 AM CDT 6:54 PM CDT
Astronomical Twilight 5:42 AM CDT 7:25 PM CDT
Moon 10:43 AM CDT (10/27) 9:04 PM CDT (10/27)
Length of Visible Light 11h 40m
Length of Day
10h 46m
Waxing Crescent, 15% of the Moon is Illuminated
Oct 27
Waxing Crescent
Oct 30
First Quarter
Nov 6
Full
Nov 14
Last Quarter
Nov 22
New

Hourly Weather History & Observations

Time (CDT) Temp. Dew Point Humidity Pressure Visibility Wind Dir Wind Speed Gust Speed Precip Events Conditions
12:54 AM 60.1 °F 53.1 °F 78% 29.89 in 10.0 mi Calm Calm - N/A   Clear
1:54 AM 61.0 °F 54.0 °F 78% 29.88 in 10.0 mi Calm Calm - N/A   Clear
2:54 AM 60.1 °F 55.0 °F 83% 29.90 in 10.0 mi Calm Calm - N/A   Clear
3:54 AM 60.1 °F 55.9 °F 86% 29.89 in 8.0 mi Calm Calm - N/A   Clear
4:54 AM 60.1 °F 57.0 °F 90% 29.89 in 7.0 mi Calm Calm - N/A   Clear
5:54 AM 57.9 °F 55.9 °F 93% 29.90 in 4.0 mi Calm Calm - N/A   Clear
6:54 AM 57.9 °F 55.9 °F 93% 29.91 in 5.0 mi Calm Calm - N/A   Clear
7:54 AM 61.0 °F 59.0 °F 93% 29.91 in 5.0 mi South 4.6 mph - N/A   Clear
8:54 AM 68.0 °F 62.1 °F 81% 29.91 in 9.0 mi SSW 12.7 mph - N/A   Clear
9:54 AM 69.8 °F 60.8 °F 73% 29.91 in 10.0 mi SSW 16.1 mph 25.3 mph N/A   Clear
10:54 AM 75.9 °F 57.0 °F 52% 29.90 in 10.0 mi SW 18.4 mph 26.5 mph N/A   Clear
11:54 AM 77.0 °F 53.6 °F 44% 29.89 in 10.0 mi SSW 20.7 mph 29.9 mph N/A   Clear
12:54 PM 80.1 °F 52.0 °F 38% 29.85 in 10.0 mi SSW 25.3 mph 33.4 mph N/A   Clear
1:54 PM 82.0 °F 52.0 °F 35% 29.82 in 10.0 mi SSW 19.6 mph 36.8 mph N/A   Clear
2:54 PM 82.0 °F 51.1 °F 34% 29.82 in 10.0 mi SSW 21.9 mph 31.1 mph N/A   Clear
3:54 PM 80.1 °F 51.1 °F 36% 29.82 in 10.0 mi SSW 13.8 mph 31.1 mph N/A   Clear
4:54 PM 79.0 °F 50.0 °F 36% 29.81 in 10.0 mi SSW 17.3 mph 31.1 mph N/A   Clear
5:54 PM 77.0 °F 50.0 °F 39% 29.81 in 10.0 mi South 16.1 mph 25.3 mph N/A   Clear
6:54 PM 75.0 °F 51.1 °F 43% 29.83 in 10.0 mi SSW 10.4 mph - N/A   Clear
7:54 PM 73.0 °F 55.0 °F 53% 29.83 in 10.0 mi South 9.2 mph - N/A   Clear
8:54 PM 72.0 °F 55.9 °F 57% 29.85 in 10.0 mi South 9.2 mph - N/A   Clear
9:54 PM 72.0 °F 55.9 °F 57% 29.86 in 10.0 mi South 11.5 mph - N/A   Clear
10:54 PM 71.1 °F 55.9 °F 59% 29.88 in 10.0 mi SSW 11.5 mph - N/A   Clear
11:54 PM 70.0 °F 55.9 °F 61% 29.89 in 10.0 mi SSW 11.5 mph - N/A   Clear